,,Stat6,,Stat2,,Stat8,,Stat9,,Stat10,,Wind1,,Wind1,
time,status,PA1M_AVG,status,PR1M_SUM,status,RH1M_AVG,status,SR1M_AVG,status,TA1M_AVG,status,W1dAve1m,status,W1sAve1m,
2009-04-04, 00:00:00,VALID,917.517,VALID,0,VALID,100,VALID,0.0509425,VALID,20.2544,VALID,198,VALID,0,
2009-04-04, 00:01:00,VALID,917.511,VALID,0,VALID,100,VALID,-0.0169808,VALID,20.2512,VALID,209,VALID,0,
2009-04-04, 00:02:00,VALID,917.503,VALID,0,VALID,100,VALID,0,VALID,20.2609,VALID,200,VALID,0,
2009-04-04, 00:03:00,VALID,917.494,VALID,0,VALID,100,VALID,0.0169808,VALID,20.2509,VALID,218,VALID,0,
2009-04-04, 00:04:00,VALID,917.489,VALID,0,VALID,100,VALID,0.0169808,VALID,20.2547,VALID,276,VALID,0,
2009-04-04, 00:05:00,VALID,917.482,VALID,0,VALID,100,VALID,0.0339617,VALID,20.2514,VALID,282,VALID,0,
2009-04-04, 00:06:00,VALID,917.478,VALID,0,VALID,100,VALID,0,VALID,20.2549,VALID,328,VALID,0,
2009-04-04, 00:07:00,VALID,917.477,VALID,0,VALID,100,VALID,0,VALID,20.2382,VALID,330,VALID,0,
2009-04-04, 00:08:00,VALID,917.48,VALID,0,VALID,100,VALID,0,VALID,20.2482,VALID,330,VALID,0,
2009-04-04, 00:09:00,VALID,917.473,VALID,0,VALID,100,VALID,-0.0169808,VALID,20.2582,VALID,330,VALID,0,
2009-04-04, 00:10:00,VALID,917.481,VALID,0,VALID,100,VALID,-0.0169808,VALID,20.2544,VALID,292,VALID,0,
2009-04-04, 00:11:00,VALID,917.471,VALID,0,VALID,100,VALID,0,VALID,20.2417,VALID,260,VALID,0,
2009-04-04, 00:12:00,VALID,917.462,VALID,0,VALID,100,VALID,0,VALID,20.2422,VALID,260,VALID,0,
2009-04-04, 00:13:00,VALID,917.437,VALID,0,VALID,100,VALID,-0.0169808,VALID,20.2382,VALID,260,VALID,0,
2009-04-04, 00:14:00,VALID,917.418,VALID,0,VALID,100,VALID,0,VALID,20.232,VALID,288,VALID,0,
2009-04-04, 00:15:00,VALID,917.381,VALID,0,VALID,100,VALID,-0.0169808,VALID,20.2227,VALID,293,VALID,0,
2009-04-04, 00:16:00,VALID,917.349,VALID,0,VALID,100,VALID,0,VALID,20.2417,VALID,296,VALID,0,
2009-04-04, 00:17:00,VALID,917.327,VALID,0,VALID,100,VALID,-0.0169808,VALID,20.2577,VALID,297,VALID,0,
2009-04-04, 00:18:00,VALID,917.296,VALID,0,VALID,100,VALID,0,VALID,20.2777,VALID,297,VALID,0,
2009-04-04, 00:19:00,VALID,917.263,VALID,0,VALID,100,VALID,0.0339617,VALID,20.2806,VALID,297,VALID,0,
2009-04-04, 00:20:00,VALID,917.231,VALID,0,VALID,100,VALID,-0.0169808,VALID,20.2769,VALID,297,VALID,0,
2009-04-04, 00:21:00,VALID,917.211,VALID,0,VALID,100,VALID,0,VALID,20.2839,VALID,297,VALID,0,
2009-04-04, 00:22:00,VALID,917.209,VALID,0,VALID,100,VALID,-0.0509425,VALID,20.2939,VALID,297,VALID,0,
2009-04-04, 00:23:00,VALID,917.189,VALID,0,VALID,100,VALID,-0.0169808,VALID,20.2834,VALID,297,VALID,0,
2009-04-04, 00:24:00,VALID,917.185,VALID,0,VALID,100,VALID,-0.0169808,VALID,20.2742,VALID,297,VALID,0,
2009-04-04, 00:25:00,VALID,917.164,VALID,0,VALID,100,VALID,-0.0169808,VALID,20.2444,VALID,297,VALID,0,
2009-04-04, 00:26:00,VALID,917.144,VALID,0,VALID,100,VALID,-0.0339617,VALID,20.2382,VALID,294,VALID,0,
2009-04-04, 00:27:00,VALID,917.128,VALID,0,VALID,100,VALID,0,VALID,20.242,VALID,234,VALID,0,
2009-04-04, 00:28:00,VALID,917.099,VALID,0,VALID,100,VALID,-0.0339617,VALID,20.2347,VALID,234,VALID,0,
2009-04-04, 00:29:00,VALID,917.086,VALID,0,VALID,100,VALID,-0.0339617,VALID,20.2412,VALID,234,VALID,0,
2009-04-04, 00:30:00,VALID,917.08,VALID,0,VALID,100,VALID,-0.0509425,VALID,20.2647,VALID,234,VALID,0,
2009-04-04, 00:31:00,VALID,917.046,VALID,0,VALID,100,VALID,0,VALID,20.2642,VALID,234,VALID,0,
2009-04-04, 00:32:00,VALID,917.023,VALID,0,VALID,100,VALID,-0.0169808,VALID,20.2677,VALID,234,VALID,0,
2009-04-04, 00:33:00,VALID,917.005,VALID,0,VALID,100,VALID,-0.0339617,VALID,20.2744,VALID,234,VALID,0,
2009-04-04, 00:34:00,VALID,916.981,VALID,0,VALID,100,VALID,-0.0169808,VALID,20.2617,VALID,234,VALID,0,
2009-04-04, 00:35:00,VALID,916.96,VALID,0,VALID,100,VALID,-0.0339617,VALID,20.2482,VALID,234,VALID,0,
2009-04-04, 00:36:00,VALID,916.935,VALID,0,VALID,100,VALID,-0.0169808,VALID,20.2352,VALID,234,VALID,0,
2009-04-04, 00:37:00,VALID,916.911,VALID,0,VALID,100,VALID,-0.0169808,VALID,20.2422,VALID,213,VALID,0,
2009-04-04, 00:38:00,VALID,916.896,VALID,0,VALID,100,VALID,0,VALID,20.2285,VALID,198,VALID,0,
2009-04-04, 00:39:00,VALID,916.877,VALID,0,VALID,100,VALID,-0.0509425,VALID,20.2355,VALID,198,VALID,0,
2009-04-04, 00:40:00,VALID,916.852,VALID,0,VALID,100,VALID,-0.0679233,VALID,20.2422,VALID,195,VALID,0,
2009-04-04, 00:41:00,VALID,916.842,VALID,0,VALID,100,VALID,0,VALID,20.2422,VALID,191,VALID,0,
2009-04-04, 00:42:00,VALID,916.827,VALID,0,VALID,100,VALID,0,VALID,20.2292,VALID,185,VALID,0,
2009-04-04, 00:43:00,VALID,916.811,VALID,0,VALID,100,VALID,-0.0339617,VALID,20.2125,VALID,185,VALID,0,
2009-04-04, 00:44:00,VALID,916.794,VALID,0,VALID,100,VALID,0,VALID,20.2155,VALID,185,VALID,0,
2009-04-04, 00:45:00,VALID,916.786,VALID,0,VALID,100,VALID,0,VALID,20.2185,VALID,185,VALID,0,
2009-04-04, 00:46:00,VALID,916.761,VALID,0,VALID,100,VALID,-0.0169808,VALID,20.2322,VALID,185,VALID,0,
2009-04-04, 00:47:00,VALID,916.736,VALID,0,VALID,100,VALID,-0.0339617,VALID,20.2355,VALID,185,VALID,0,
2009-04-04, 00:48:00,VALID,916.702,VALID,0,VALID,100,VALID,-0.0339617,VALID,20.2684,VALID,185,VALID,0,
2009-04-04, 00:49:00,VALID,916.676,VALID,0,VALID,100,VALID,-0.0169808,VALID,20.2704,VALID,185,VALID,0,
2009-04-04, 00:50:00,VALID,916.647,VALID,0,VALID,100,VALID,-0.0679233,VALID,20.3034,VALID,185,VALID,0,
2009-04-04, 00:51:00,VALID,916.621,VALID,0,VALID,100,VALID,-0.0339617,VALID,20.3198,VALID,185,VALID,0,
2009-04-04, 00:52:00,VALID,916.597,VALID,0,VALID,100,VALID,-0.0339617,VALID,20.2996,VALID,185,VALID,0,
2009-04-04, 00:53:00,VALID,916.579,VALID,0,VALID,100,VALID,-0.0509425,VALID,20.2944,VALID,185,VALID,0,
2009-04-04, 00:54:00,VALID,916.562,VALID,0,VALID,100,VALID,-0.0509425,VALID,20.2714,VALID,185,VALID,0,
2009-04-04, 00:55:00,VALID,916.551,VALID,0,VALID,100,VALID,-0.0339617,VALID,20.2514,VALID,185,VALID,0,
2009-04-04, 00:56:00,VALID,916.555,VALID,0,VALID,100,VALID,-0.0339617,VALID,20.2447,VALID,185,VALID,0,
2009-04-04, 00:57:00,VALID,916.551,VALID,0,VALID,100,VALID,-0.0509425,VALID,20.2582,VALID,133,VALID,0,
2009-04-04, 00:58:00,VALID,916.553,VALID,0,VALID,100,VALID,-0.0169808,VALID,20.2682,VALID,63,VALID,0,
2009-04-04, 00:59:00,VALID,916.547,VALID,0,VALID,100,VALID,-0.0169808,VALID,20.2412,VALID,51,VALID,0,
2009-04-04, 01:00:00,VALID,916.555,VALID,0,VALID,100,VALID,-0.0339617,VALID,20.2447,VALID,41,VALID,0.00381098,
2009-04-04, 01:01:00,VALID,916.534,VALID,0,VALID,100,VALID,-0.0169808,VALID,20.239,VALID,33,VALID,0,
2009-04-04, 01:02:00,VALID,916.527,VALID,0,VALID,100,VALID,-0.0339617,VALID,20.236,VALID,28,VALID,0,
2009-04-04, 01:03:00,VALID,916.518,VALID,0,VALID,100,VALID,-0.0509425,VALID,20.2387,VALID,28,VALID,0,
2009-04-04, 01:04:00,VALID,916.507,VALID,0,VALID,100,VALID,0,VALID,20.2255,VALID,35,VALID,0,
2009-04-04, 01:05:00,VALID,916.491,VALID,0,VALID,100,VALID,-0.0679233,VALID,20.2227,VALID,34,VALID,0,
2009-04-04, 01:06:00,VALID,916.461,VALID,0,VALID,100,VALID,-0.0169808,VALID,20.2455,VALID,34,VALID,0,
2009-04-04, 01:07:00,VALID,916.438,VALID,0,VALID,100,VALID,-0.101885,VALID,20.239,VALID,34,VALID,0,
2009-04-04, 01:08:00,VALID,916.413,VALID,0,VALID,100,VALID,-0.0679233,VALID,20.252,VALID,30,VALID,0,
2009-04-04, 01:09:00,VALID,916.406,VALID,0,VALID,100,VALID,-0.0339617,VALID,20.2752,VALID,14,VALID,0,
2009-04-04, 01:10:00,VALID,916.398,VALID,0,VALID,100,VALID,-0.0339617,VALID,20.2682,VALID,14,VALID,0,
2009-04-04, 01:11:00,VALID,916.395,VALID,0,VALID,100,VALID,-0.0509425,VALID,20.2941,VALID,14,VALID,0,
2009-04-04, 01:12:00,VALID,916.375,VALID,0,VALID,100,VALID,-0.0679233,VALID,20.2974,VALID,14,VALID,0,
2009-04-04, 01:13:00,VALID,916.346,VALID,0,VALID,100,VALID,-0.0509425,VALID,20.2936,VALID,7,VALID,0,
2009-04-04, 01:14:00,VALID,916.338,VALID,0,VALID,100,VALID,-0.0679233,VALID,20.3233,VALID,3,VALID,0,
2009-04-04, 01:15:00,VALID,916.33,VALID,0,VALID,100,VALID,-0.0849042,VALID,20.3171,VALID,4,VALID,0,
2009-04-04, 01:16:00,VALID,916.342,VALID,0,VALID,100,VALID,-0.0339617,VALID,20.3101,VALID,14,VALID,0,
2009-04-04, 01:17:00,VALID,916.337,VALID,0,VALID,100,VALID,-0.0509425,VALID,20.3233,VALID,9,VALID,0,
2009-04-04, 01:18:00,VALID,916.344,VALID,0,VALID,100,VALID,-0.0849042,VALID,20.3169,VALID,6,VALID,0,
2009-04-04, 01:19:00,VALID,916.342,VALID,0,VALID,100,VALID,-0.0849042,VALID,20.3171,VALID,6,VALID,0,
2009-04-04, 01:20:00,VALID,916.34,VALID,0,VALID,100,VALID,-0.0339617,VALID,20.3101,VALID,6,VALID,0,
2009-04-04, 01:21:00,VALID,916.338,VALID,0,VALID,100,VALID,-0.0679233,VALID,20.3204,VALID,6,VALID,0,
2009-04-04, 01:22:00,VALID,916.324,VALID,0,VALID,100,VALID,-0.0679233,VALID,20.3166,VALID,23,VALID,0,
2009-04-04, 01:23:00,VALID,916.294,VALID,0,VALID,100,VALID,-0.0509425,VALID,20.3269,VALID,27,VALID,0.0545015,
2009-04-04, 01:24:00,VALID,916.275,VALID,0,VALID,100,VALID,0,VALID,20.3333,VALID,42,VALID,0.321837,
2009-04-04, 01:25:00,VALID,916.239,VALID,0,VALID,100,VALID,-0.0169808,VALID,20.3296,VALID,7,VALID,0.0182884,
2009-04-04, 01:26:00,VALID,916.215,VALID,0,VALID,100,VALID,-0.0169808,VALID,20.3226,VALID,7,VALID,0,
2009-04-04, 01:27:00,VALID,916.187,VALID,0,VALID,100,VALID,0.0169808,VALID,20.3328,VALID,16,VALID,0,
2009-04-04, 01:28:00,VALID,916.172,VALID,0,VALID,100,VALID,-0.0169808,VALID,20.3331,VALID,14,VALID,0.0465199,
2009-04-04, 01:29:00,VALID,916.164,VALID,0,VALID,100,VALID,-0.0339617,VALID,20.3331,VALID,17,VALID,0,
2009-04-04, 01:30:00,VALID,916.156,VALID,0,VALID,100,VALID,-0.0169808,VALID,20.3333,VALID,13,VALID,0,
2009-04-04, 01:31:00,VALID,916.157,VALID,0,VALID,100,VALID,-0.0169808,VALID,20.3328,VALID,10,VALID,0,
2009-04-04, 01:32:00,VALID,916.157,VALID,0,VALID,100,VALID,-0.0339617,VALID,20.3201,VALID,18,VALID,0.0430689,
2009-04-04, 01:33:00,VALID,916.154,VALID,0,VALID,100,VALID,-0.0509425,VALID,20.3304,VALID,7,VALID,0.23418,
2009-04-04, 01:34:00,VALID,916.16,VALID,0,VALID,100,VALID,0,VALID,20.3393,VALID,3,VALID,0.00651042,
2009-04-04, 01:35:00,VALID,916.161,VALID,0,VALID,100,VALID,-0.0339617,VALID,20.3626,VALID,47,VALID,0,
2009-04-04, 01:36:00,VALID,916.158,VALID,0,VALID,100,VALID,-0.0339617,VALID,20.3755,VALID,33,VALID,0,
2009-04-04, 01:37:00,VALID,916.146,VALID,0,VALID,100,VALID,-0.0509425,VALID,20.3842,VALID,14,VALID,0,
2009-04-04, 01:38:00,VALID,916.14,VALID,0,VALID,100,VALID,-0.0169808,VALID,20.3947,VALID,17,VALID,0,
2009-04-04, 01:39:00,VALID,916.154,VALID,0,VALID,100,VALID,0,VALID,20.4212,VALID,29,VALID,0,
2009-04-04, 01:40:00,VALID,916.149,VALID,0,VALID,100,VALID,-0.0509425,VALID,20.4107,VALID,31,VALID,0,
2009-04-04, 01:41:00,VALID,916.134,VALID,0,VALID,100,VALID,-0.0169808,VALID,20.4147,VALID,29,VALID,0,
2009-04-04, 01:42:00,VALID,916.121,VALID,0,VALID,100,VALID,-0.0849042,VALID,20.4047,VALID,22,VALID,0,
2009-04-04, 01:43:00,VALID,916.119,VALID,0,VALID,100,VALID,-0.0509425,VALID,20.3813,VALID,6,VALID,0.0362723,
2009-04-04, 01:44:00,VALID,916.1,VALID,0,VALID,100,VALID,0,VALID,20.3877,VALID,359,VALID,0,
2009-04-04, 01:45:00,VALID,916.087,VALID,0,VALID,100,VALID,-0.0169808,VALID,20.375,VALID,346,VALID,0,
2009-04-04, 01:46:00,VALID,916.085,VALID,0,VALID,100,VALID,-0.0169808,VALID,20.3558,VALID,337,VALID,0,
2009-04-04, 01:47:00,VALID,916.084,VALID,0,VALID,100,VALID,-0.0169808,VALID,20.3331,VALID,326,VALID,0,
2009-04-04, 01:48:00,VALID,916.087,VALID,0,VALID,100,VALID,0,VALID,20.3166,VALID,326,VALID,0,
2009-04-04, 01:49:00,VALID,916.076,VALID,0,VALID,100,VALID,0,VALID,20.3206,VALID,326,VALID,0,
2009-04-04, 01:50:00,VALID,916.089,VALID,0,VALID,100,VALID,-0.0169808,VALID,20.3206,VALID,326,VALID,0,
2009-04-04, 01:51:00,VALID,916.102,VALID,0,VALID,100,VALID,-0.0169808,VALID,20.3201,VALID,325,VALID,0,
2009-04-04, 01:52:00,VALID,916.112,VALID,0,VALID,100,VALID,0,VALID,20.3031,VALID,325,VALID,0,
2009-04-04, 01:53:00,VALID,916.125,VALID,0,VALID,100,VALID,-0.0169808,VALID,20.3263,VALID,325,VALID,0,
2009-04-04, 01:54:00,VALID,916.135,VALID,0,VALID,100,VALID,-0.0339617,VALID,20.3361,VALID,325,VALID,0,
2009-04-04, 01:55:00,VALID,916.14,VALID,0,VALID,100,VALID,0,VALID,20.3596,INVALID,360,VALID,0,
2009-04-04, 01:56:00,VALID,916.129,VALID,0,VALID,100,VALID,-0.0339617,VALID,20.3715,VALID,325,VALID,0,
2009-04-04, 01:57:00,VALID,916.12,VALID,0,VALID,100,VALID,-0.0169808,VALID,20.3745,VALID,245,VALID,0,
2009-04-04, 01:58:00,VALID,916.101,VALID,0,VALID,100,VALID,0,VALID,20.3685,VALID,220,VALID,0,
2009-04-04, 01:59:00,VALID,916.097,VALID,0,VALID,100,VALID,-0.0339617,VALID,20.3618,VALID,213,VALID,0,
2009-04-04, 02:00:00,VALID,916.084,VALID,0,VALID,100,VALID,0,VALID,20.3723,VALID,228,VALID,0.0423018,
2009-04-04, 02:01:00,VALID,916.074,VALID,0,VALID,100,VALID,0,VALID,20.368,VALID,245,VALID,0.0746951,
2009-04-04, 02:02:00,VALID,916.073,VALID,0,VALID,100,VALID,0.0169808,VALID,20.3456,VALID,237,VALID,0,
2009-04-04, 02:03:00,VALID,916.077,VALID,0,VALID,100,VALID,-0.0679233,VALID,20.3431,VALID,240,VALID,0.0926339,
2009-04-04, 02:04:00,VALID,916.076,VALID,0,VALID,100,VALID,0,VALID,20.3136,VALID,246,VALID,0.0623224,
2009-04-04, 02:05:00,VALID,916.089,VALID,0,VALID,100,VALID,-0.0339617,VALID,20.3036,VALID,235,VALID,0,
2009-04-04, 02:06:00,VALID,916.085,VALID,0,VALID,100,VALID,-0.0339617,VALID,20.2909,VALID,243,VALID,0,
2009-04-04, 02:07:00,VALID,916.069,VALID,0,VALID,100,VALID,-0.0339617,VALID,20.2914,VALID,254,VALID,0,
2009-04-04, 02:08:00,VALID,916.057,VALID,0,VALID,100,VALID,-0.0509425,VALID,20.2814,VALID,263,VALID,0,
2009-04-04, 02:09:00,VALID,916.052,VALID,0,VALID,100,VALID,-0.0339617,VALID,20.2647,VALID,248,VALID,0,
2009-04-04, 02:10:00,VALID,916.047,VALID,0,VALID,100,VALID,-0.0169808,VALID,20.2617,VALID,237,VALID,0,
2009-04-04, 02:11:00,VALID,916.039,VALID,0,VALID,100,VALID,-0.0169808,VALID,20.2547,VALID,241,VALID,0,
2009-04-04, 02:12:00,VALID,916.027,VALID,0,VALID,100,VALID,0,VALID,20.2584,VALID,260,VALID,0,
2009-04-04, 02:13:00,VALID,916.01,VALID,0,VALID,100,VALID,0,VALID,20.2649,VALID,254,VALID,0,
2009-04-04, 02:14:00,VALID,915.999,VALID,0,VALID,100,VALID,-0.0169808,VALID,20.2714,VALID,220,VALID,0,
2009-04-04, 02:15:00,VALID,915.977,VALID,0,VALID,100,VALID,-0.0339617,VALID,20.2617,VALID,236,VALID,0,
2009-04-04, 02:16:00,VALID,915.956,VALID,0,VALID,100,VALID,0,VALID,20.2385,VALID,240,VALID,0,
2009-04-04, 02:17:00,VALID,915.932,VALID,0,VALID,100,VALID,0,VALID,20.2457,VALID,213,VALID,0,
2009-04-04, 02:18:00,VALID,915.934,VALID,0,VALID,100,VALID,-0.0169808,VALID,20.2325,VALID,202,VALID,0,
2009-04-04, 02:19:00,VALID,915.93,VALID,0,VALID,100,VALID,-0.0339617,VALID,20.2225,VALID,204,VALID,0.0575945,
2009-04-04, 02:20:00,VALID,915.933,VALID,0,VALID,100,VALID,-0.0169808,VALID,20.2095,VALID,195,VALID,0.00190972,
2009-04-04, 02:21:00,VALID,915.945,VALID,0,VALID,100,VALID,-0.0169808,VALID,20.2095,VALID,195,VALID,0.0178052,
2009-04-04, 02:22:00,VALID,915.964,VALID,0,VALID,100,VALID,-0.0169808,VALID,20.2103,VALID,195,VALID,0.074673,
2009-04-04, 02:23:00,VALID,915.967,VALID,0,VALID,100,VALID,-0.0169808,VALID,20.1895,VALID,195,VALID,0,
2009-04-04, 02:24:00,VALID,915.987,VALID,0,VALID,100,VALID,0.0339617,VALID,20.1985,VALID,195,VALID,0,
2009-04-04, 02:25:00,VALID,915.989,VALID,0,VALID,100,VALID,0.0509425,VALID,20.212,VALID,195,VALID,0,
2009-04-04, 02:26:00,VALID,915.984,VALID,0,VALID,100,VALID,0.0339617,VALID,20.2117,VALID,195,VALID,0,
2009-04-04, 02:27:00,VALID,915.991,VALID,0,VALID,100,VALID,0.0679233,VALID,20.2145,VALID,195,VALID,0,
2009-04-04, 02:28:00,VALID,915.99,VALID,0,VALID,100,VALID,0.0509425,VALID,20.2112,VALID,195,VALID,0.000186012,
2009-04-04, 02:29:00,VALID,915.996,VALID,0,VALID,100,VALID,0.0339617,VALID,20.218,VALID,190,VALID,0.0485491,
2009-04-04, 02:30:00,VALID,916.013,VALID,0,VALID,100,VALID,0.0339617,VALID,20.2182,VALID,194,VALID,0.0361555,
2009-04-04, 02:31:00,VALID,916.012,VALID,0,VALID,100,VALID,0.0509425,VALID,20.225,VALID,185,VALID,0,
2009-04-04, 02:32:00,VALID,916.024,VALID,0,VALID,100,VALID,0,VALID,20.2312,VALID,167,VALID,0,
2009-04-04, 02:33:00,VALID,916.014,VALID,0,VALID,100,VALID,0.0509425,VALID,20.2212,VALID,163,VALID,0,
2009-04-04, 02:34:00,VALID,916.005,VALID,0,VALID,100,VALID,0.0509425,VALID,20.214,VALID,163,VALID,0,
2009-04-04, 02:35:00,VALID,916.014,VALID,0,VALID,100,VALID,0.0679233,VALID,20.2309,VALID,168,VALID,0,
2009-04-04, 02:36:00,VALID,916.009,VALID,0,VALID,100,VALID,0.0509425,VALID,20.2337,VALID,166,VALID,0,
2009-04-04, 02:37:00,VALID,916.013,VALID,0,VALID,100,VALID,0.0509425,VALID,20.2534,VALID,172,VALID,0,
2009-04-04, 02:38:00,VALID,916.018,VALID,0,VALID,100,VALID,0.0169808,VALID,20.2607,VALID,174,VALID,0,
2009-04-04, 02:39:00,VALID,916.029,VALID,0,VALID,100,VALID,-0.0339617,VALID,20.2714,VALID,174,VALID,0,
2009-04-04, 02:40:00,VALID,916.042,VALID,0,VALID,100,VALID,-0.101885,VALID,20.2844,VALID,174,VALID,0,
2009-04-04, 02:41:00,VALID,916.051,VALID,0,VALID,100,VALID,-0.0169808,VALID,20.2939,VALID,172,VALID,0,
2009-04-04, 02:42:00,VALID,916.07,VALID,0,VALID,100,VALID,-0.0679233,VALID,20.2809,VALID,109,VALID,0,
2009-04-04, 02:43:00,VALID,916.088,VALID,0,VALID,100,VALID,-0.0679233,VALID,20.2457,VALID,103,VALID,0,
2009-04-04, 02:44:00,VALID,916.083,VALID,0,VALID,100,VALID,-0.0509425,VALID,20.2457,VALID,103,VALID,0,
2009-04-04, 02:45:00,VALID,916.097,VALID,0,VALID,100,VALID,-0.0339617,VALID,20.2187,VALID,103,VALID,0,
2009-04-04, 02:46:00,VALID,916.096,VALID,0,VALID,100,VALID,-0.0339617,VALID,20.2227,VALID,103,VALID,0,
2009-04-04, 02:47:00,VALID,916.106,VALID,0,VALID,100,VALID,-0.0509425,VALID,20.2195,VALID,103,VALID,0,
2009-04-04, 02:48:00,VALID,916.102,VALID,0,VALID,100,VALID,-0.0679233,VALID,20.2192,VALID,103,VALID,0,
2009-04-04, 02:49:00,VALID,916.107,VALID,0,VALID,100,VALID,-0.0339617,VALID,20.2227,VALID,103,VALID,0,
2009-04-04, 02:50:00,VALID,916.106,VALID,0,VALID,100,VALID,-0.0849042,VALID,20.2422,VALID,103,VALID,0,
2009-04-04, 02:51:00,VALID,916.114,VALID,0,VALID,100,VALID,-0.0339617,VALID,20.2482,VALID,103,VALID,0,
2009-04-04, 02:52:00,VALID,916.126,VALID,0,VALID,100,VALID,-0.0679233,VALID,20.2549,VALID,103,VALID,0,
2009-04-04, 02:53:00,VALID,916.131,VALID,0,VALID,100,VALID,-0.0339617,VALID,20.2542,VALID,103,VALID,0,
2009-04-04, 02:54:00,VALID,916.153,VALID,0,VALID,100,VALID,0.0339617,VALID,20.2696,VALID,103,VALID,0,
2009-04-04, 02:55:00,VALID,916.142,VALID,0,VALID,100,VALID,0.0339617,VALID,20.2731,VALID,103,VALID,0,
2009-04-04, 02:56:00,VALID,916.139,VALID,0,VALID,100,VALID,0.0679233,VALID,20.2669,VALID,103,VALID,0,
2009-04-04, 02:57:00,VALID,916.141,VALID,0,VALID,100,VALID,0.0169808,VALID,20.2637,VALID,103,VALID,0,
2009-04-04, 02:58:00,VALID,916.133,VALID,0,VALID,100,VALID,0.0679233,VALID,20.2472,VALID,103,VALID,0,
2009-04-04, 02:59:00,VALID,916.136,VALID,0,VALID,100,VALID,0.0509425,VALID,20.2237,VALID,103,VALID,0,
2009-04-04, 03:00:00,VALID,916.134,VALID,0,VALID,100,VALID,0.0339617,VALID,20.2309,VALID,103,VALID,0,
2009-04-04, 03:01:00,VALID,916.131,VALID,0,VALID,100,VALID,0.0509425,VALID,20.2404,VALID,103,VALID,0,
2009-04-04, 03:02:00,VALID,916.133,VALID,0,VALID,100,VALID,0.0509425,VALID,20.2472,VALID,103,VALID,0,
2009-04-04, 03:03:00,VALID,916.138,VALID,0,VALID,100,VALID,0.0679233,VALID,20.2504,VALID,103,VALID,0,
2009-04-04, 03:04:00,VALID,916.122,VALID,0,VALID,100,VALID,0.0509425,VALID,20.2304,VALID,103,VALID,0,
2009-04-04, 03:05:00,VALID,916.106,VALID,0,VALID,100,VALID,0.0679233,VALID,20.2337,VALID,103,VALID,0,
2009-04-04, 03:06:00,VALID,916.105,VALID,0,VALID,100,VALID,0.0679233,VALID,20.2477,VALID,103,VALID,0,
2009-04-04, 03:07:00,VALID,916.102,VALID,0,VALID,100,VALID,0.0169808,VALID,20.2631,VALID,103,VALID,0,
2009-04-04, 03:08:00,VALID,916.111,VALID,0,VALID,100,VALID,0.0679233,VALID,20.2369,VALID,103,VALID,0,
2009-04-04, 03:09:00,VALID,916.098,VALID,0,VALID,100,VALID,-0.0339617,VALID,20.252,VALID,103,VALID,0,
2009-04-04, 03:10:00,VALID,916.094,VALID,0,VALID,100,VALID,-0.0509425,VALID,20.2452,VALID,103,VALID,0,
2009-04-04, 03:11:00,VALID,916.089,VALID,0,VALID,100,VALID,-0.0679233,VALID,20.2352,VALID,103,VALID,0,
2009-04-04, 03:12:00,VALID,916.086,VALID,0,VALID,100,VALID,-0.0509425,VALID,20.2414,VALID,103,VALID,0,
2009-04-04, 03:13:00,VALID,916.086,VALID,0,VALID,100,VALID,0,VALID,20.2382,VALID,103,VALID,0,
2009-04-04, 03:14:00,VALID,916.075,VALID,0,VALID,100,VALID,-0.0169808,VALID,20.232,VALID,103,VALID,0,
2009-04-04, 03:15:00,VALID,916.073,VALID,0,VALID,100,VALID,-0.0169808,VALID,20.2385,VALID,103,VALID,0,
2009-04-04, 03:16:00,VALID,916.07,VALID,0,VALID,100,VALID,-0.0509425,VALID,20.2647,VALID,103,VALID,0,
2009-04-04, 03:17:00,VALID,916.072,VALID,0.2,VALID,100,VALID,0.0169808,VALID,20.2614,VALID,103,VALID,0,
2009-04-04, 03:18:00,VALID,916.079,VALID,0,VALID,100,VALID,-0.0509425,VALID,20.2544,VALID,103,VALID,0,
2009-04-04, 03:19:00,VALID,916.089,VALID,0,VALID,100,VALID,-0.0509425,VALID,20.2677,VALID,103,VALID,0,
2009-04-04, 03:20:00,VALID,916.114,VALID,0,VALID,100,VALID,-0.0509425,VALID,20.2871,VALID,103,VALID,0,
2009-04-04, 03:21:00,VALID,916.125,VALID,0,VALID,100,VALID,-0.0509425,VALID,20.2809,VALID,103,VALID,0,
2009-04-04, 03:22:00,VALID,916.147,VALID,0,VALID,100,VALID,-0.0509425,VALID,20.2644,VALID,103,VALID,0,
2009-04-04, 03:23:00,VALID,916.169,VALID,0,VALID,100,VALID,-0.0509425,VALID,20.2619,VALID,103,VALID,0,
2009-04-04, 03:24:00,VALID,916.182,VALID,0,VALID,100,VALID,-0.0679233,VALID,20.2452,VALID,103,VALID,0,
2009-04-04, 03:25:00,VALID,916.184,VALID,0,VALID,100,VALID,-0.0339617,VALID,20.229,VALID,103,VALID,0,
2009-04-04, 03:26:00,VALID,916.183,VALID,0,VALID,100,VALID,-0.0169808,VALID,20.2355,VALID,103,VALID,0,
2009-04-04, 03:27:00,VALID,916.196,VALID,0,VALID,100,VALID,-0.0169808,VALID,20.2252,VALID,103,VALID,0,
2009-04-04, 03:28:00,VALID,916.201,VALID,0,VALID,100,VALID,-0.0169808,VALID,20.2425,VALID,103,VALID,0,
2009-04-04, 03:29:00,VALID,916.219,VALID,0,VALID,100,VALID,0,VALID,20.249,VALID,103,VALID,0,
2009-04-04, 03:30:00,VALID,916.212,VALID,0,VALID,100,VALID,-0.0339617,VALID,20.2584,VALID,103,VALID,0,
2009-04-04, 03:31:00,VALID,916.223,VALID,0,VALID,100,VALID,-0.0339617,VALID,20.2584,VALID,103,VALID,0,
2009-04-04, 03:32:00,VALID,916.217,VALID,0,VALID,100,VALID,-0.0679233,VALID,20.2687,VALID,103,VALID,0,
2009-04-04, 03:33:00,VALID,916.224,VALID,0,VALID,100,VALID,-0.0509425,VALID,20.2552,VALID,103,VALID,0,
2009-04-04, 03:34:00,VALID,916.211,VALID,0,VALID,100,VALID,-0.0339617,VALID,20.2552,VALID,103,VALID,0,
2009-04-04, 03:35:00,VALID,916.219,VALID,0,VALID,100,VALID,-0.0169808,VALID,20.2417,VALID,103,VALID,0,
2009-04-04, 03:36:00,VALID,916.202,VALID,0,VALID,100,VALID,-0.0509425,VALID,20.2552,VALID,103,VALID,0,
2009-04-04, 03:37:00,VALID,916.208,VALID,0,VALID,100,VALID,-0.0339617,VALID,20.2487,VALID,103,VALID,0,
2009-04-04, 03:38:00,VALID,916.2,VALID,0,VALID,100,VALID,0,VALID,20.2584,VALID,103,VALID,0,
2009-04-04, 03:39:00,VALID,916.202,VALID,0,VALID,100,VALID,0,VALID,20.252,VALID,103,VALID,0,
2009-04-04, 03:40:00,VALID,916.223,VALID,0,VALID,100,VALID,-0.0339617,VALID,20.2485,VALID,103,VALID,0,
2009-04-04, 03:41:00,VALID,916.227,VALID,0,VALID,100,VALID,0,VALID,20.2485,VALID,103,VALID,0,
2009-04-04, 03:42:00,VALID,916.232,VALID,0,VALID,100,VALID,-0.0169808,VALID,20.2614,VALID,103,VALID,0,
2009-04-04, 03:43:00,VALID,916.237,VALID,0,VALID,100,VALID,-0.0169808,VALID,20.2614,VALID,103,VALID,0,
2009-04-04, 03:44:00,VALID,916.238,VALID,0,VALID,100,VALID,-0.0169808,VALID,20.2649,VALID,103,VALID,0,
2009-04-04, 03:45:00,VALID,916.239,VALID,0,VALID,100,VALID,-0.0339617,VALID,20.2479,VALID,188,VALID,0,
2009-04-04, 03:46:00,VALID,916.233,VALID,0,VALID,100,VALID,-0.0509425,VALID,20.2517,VALID,191,VALID,0,
2009-04-04, 03:47:00,VALID,916.236,VALID,0,VALID,100,VALID,0,VALID,20.2614,VALID,191,VALID,0,
2009-04-04, 03:48:00,VALID,916.227,VALID,0,VALID,100,VALID,0,VALID,20.2712,VALID,191,VALID,0,
2009-04-04, 03:49:00,VALID,916.233,VALID,0,VALID,100,VALID,-0.0339617,VALID,20.2674,VALID,191,VALID,0,
2009-04-04, 03:50:00,VALID,916.224,VALID,0,VALID,100,VALID,-0.0169808,VALID,20.2774,VALID,191,VALID,0,
2009-04-04, 03:51:00,VALID,916.216,VALID,0,VALID,100,VALID,-0.0509425,VALID,20.2722,VALID,259,VALID,0,